Regional Weather Roundup
Issued by NWS

Home | Current Version | Previous Version | Graphics & Text | Print | Product List | Glossary Off
Versions: 1 2 3 4 5 6 7 8 9 10 11 12 13 14 15 16 17 18 19 20 21 22 23 24 25 26 27 28 29 30 31 32 33 34 35 36 37 38 39 40 41 42 43 44 45 46 47 48 49 50

000
ASUS43 KDMX 042206
RWRIA

WEATHER ROUNDUP FOR IOWA
NATIONAL WEATHER SERVICE DES MOINES IA
400 PM CST SUN DEC 04 2016

NOTE: "FAIR" INDICATES FEW OR NO CLOUDS BELOW 12,000 FEET WITH NO
SIGNIFICANT WEATHER AND/OR OBSTRUCTIONS TO VISIBILITY.

* - THESE STATIONS ARE NOT NWS STATIONS...THUS NOT UNDER NWS
QUALITY CONTROL.  THEY ALSO DO NOT REPORT WEATHER SUCH
AS PRECIPITATION OR FOG.

IAZ001>003-012>014-020>022-031>034-043>046-042300-
   NORTHWEST IOWA

CITY           SKY/WX    TMP DP  RH WIND       PRES   REMARKS
CARROLL *      CLEAR     37  37 100 SW7G13    29.85F WCI  32
CHEROKEE *     CLEAR     45  36  72 W5        29.83S
DENISON *      CLEAR     41  36  81 SW12      29.84S
LE MARS *      CLEAR     46  32  57 W10       29.84S
ORANGE CITY *  CLEAR     45  34  65 W12       29.82S
SHELDON *      CLEAR     43  36  75 W10       29.80R
SIOUX CITY     CLEAR     50  32  50 W9        29.84S
SPENCER        CLEAR     43  34  70 W13G22    29.82R
STORM LAKE *   CLEAR     39  36  87 SW10      29.83S WCI  32
$$

IAZ055>058-069>071-079>083-090>094-042300-
   SOUTHWEST IOWA

CITY           SKY/WX    TMP DP  RH WIND       PRES   REMARKS
ATLANTIC *     CLEAR     37  34  87 SW8       29.89S WCI  31
AUDUBON *      CLEAR     37  34  87 S3        29.88S
CLARINDA *       N/A     41  37  87 SW8       29.94S
COUNCIL BLFS * CLEAR     37  34  87 SW7       29.89S WCI  32
CRESTON *      PTCLDY    37  34  87 W9        29.92R WCI  31
HARLAN  *      CLEAR     37  36  93 SW7       29.91S WCI  32
LAMONI         CLOUDY    37  34  89 W9        29.92S WCI  30
RED OAK *      CLEAR     41  36  81 SW8       29.92S
SHENANDOAH *   CLEAR     41  37  87 SW9       29.93S
$$

IAZ047>049-059>061-072>074-084-042300-
   CENTRAL IOWA

CITY           SKY/WX    TMP DP  RH WIND       PRES   REMARKS
AMES           CLOUDY    34  33  96 W10       29.89S WCI  26
ANKENY *       CLOUDY    36 N/A N/A W10       29.91S WCI  28
BOONE *        CLOUDY    34  32  93 W12G17    29.87S WCI  25
CHARITON *       N/A     37  34  87 W12       29.91R WCI  30
DES MOINES     CLOUDY    38  34  85 W13       29.91R WCI  30
GRINNELL*      CLOUDY    34  32  93 W8        29.90R WCI  27
KNOXVILLE *    CLOUDY    37  34  87 W9        29.89S WCI  31
MARSHALLTOWN   CLOUDY    33  31  92 W14       29.88R WCI  23
NEWTON *       CLOUDY    34  32  93 W8        29.89R WCI  27
PELLA *        CLOUDY    37  34  89 W10       29.91S WCI  29
PERRY *        CLOUDY    37  35  94 SW7       29.89S WCI  32
$$

IAZ004>006-015-016-023>025-035-036-042300-
   NORTH CENTRAL IOWA

CITY           SKY/WX    TMP DP  RH WIND       PRES   REMARKS
ALGONA *       CLOUDY    37  36  93 SW10      29.82F WCI  30
CLARION *      CLOUDY    34  34 100 SW8G15    29.85S WCI  27
ESTHERVILLE    CLEAR     42  36  79 W12       29.80R
FORT DODGE *   MOCLDY    36  30  80 S8        29.86S WCI  29
MASON CITY     CLOUDY    34  31  88 SW9       29.85R WCI  27
FOREST CITY *  CLOUDY    36  36 100 SW9       29.82S WCI  29
WEBSTER CITY * CLOUDY    34  34 100 SW12      29.84F WCI  25
IOWA FALLS *   CLOUDY    34  32  92 SW13      29.87S WCI  25
$$

IAZ007>011-017>019-026>030-037>042-050>054-066-042300-
   NORTHEAST IOWA

CITY           SKY/WX    TMP DP  RH WIND       PRES   REMARKS
CEDAR RAPIDS   CLOUDY    32  32 100 S9        29.89R FOG     WCI  24
CHARLES CITY * CLOUDY    34  32  93 SW12      29.85S WCI  25
CLINTON *      CLOUDY    32  30  92 S7        29.92S WCI  26
DECORAH *      CLOUDY    32  32 100 VRB5      29.83S WCI  27
DUBUQUE        CLOUDY    31  30  96 S10       29.87F FOG     WCI  22
MONTICELLO *   CLOUDY    32  32 100 S9        29.89S FOG     WCI  24
OELWEIN *      CLOUDY    34  32  93 SW8       29.86S FOG     WCI  27
WATERLOO       CLOUDY    33  32  96 SW6       29.87R WCI  28
$$

IAZ064-065-067-068-078-042300-
   EAST CENTRAL IOWA

CITY           SKY/WX    TMP DP  RH WIND       PRES   REMARKS
DAVENPORT      CLOUDY    32  31  96 S6        29.92R FOG     WCI  26
IOWA CITY      CLOUDY    34  32  92 SW7       29.93R FOG     WCI  28
MUSCATINE *    CLOUDY    34  32  93 S7        29.93S WCI  28
QUAD CITIES    CLOUDY    33  30  88 S3        29.92R FOG
$$

IAZ062-063-075>077-085>089-095>099-042300-
   SOUTHEAST IOWA

CITY           SKY/WX    TMP DP  RH WIND       PRES   REMARKS
BURLINGTON     CLOUDY    33  33 100 SW7       29.93R FOG     WCI  27
FAIRFIELD *    CLOUDY    34  32  93 SW6       29.92R FOG     WCI  29
FORT MADISON * CLOUDY    34  34 100 SW5       29.94S FOG     WCI  30
KEOKUK *       CLOUDY    34  34 100 SW7       29.93S FOG     WCI  28
OSKALOOSA *    CLOUDY    33  33  96 SW6       29.91S WCI  28
CENTERVILLE *  CLOUDY    36  32  87 W9        29.93S WCI  29
OTTUMWA        CLOUDY    35  32  88 SW5       29.91R WCI  31
WASHINGTON *   CLOUDY    34  34 100 SW8       29.93S FOG     WCI  27
$$

ABBREVIATIONS USED IN REMARKS
   TC - TEMPERATURES IN CELSIUS
  WCI - WIND CHILL INDEX
   HX - HEAT INDEX
  VSB - VISIBILITY
$$





USA.gov is the U.S. government's official web portal to all federal, state and local government web resources and services.